Date String (YYYY-MM-DD hh:mm:ss) UTC,Instrument flags,Ambient pressure (hPa),Sample flow (lpm),Bypass flow (lpm),Sample temperature (°C),Ambient temperature (°C),ASC tube jacket temperature (°C),LED temperature (°C),Box temperature (°C),Sample RH (%),Span deviation,Mass concentration (μg/m³),Mass concentration (μg/m³),Mass concentration (μg/m³)
DateTimeUTC,F1_M11,P_M11,Q1_M11,Q2_M11,T1_M11,T2_M11,T3_M11,T4_M11,T5_M11,U1_M11,ZSPAN_M11,X0_M11,X2_M11,X1_M11
2022-05-05 14:00:00,,0826.0,4.99,0.00,24.7,23.8,00.0,33.6,26.6,22.9,0000.0,0006.22,0003.65,0003.19
2022-05-05 14:01:00,,0826.0,5.01,0.00,24.7,23.8,00.0,33.6,26.5,22.4,0000.0,0006.56,0003.76,0003.28
2022-05-05 14:02:00,,0826.0,4.99,0.00,24.6,23.8,00.0,33.6,26.5,22.8,0000.0,0006.89,0003.88,0003.39
2022-05-05 14:03:00,,0826.0,5.01,0.00,24.6,23.8,00.0,33.6,26.5,23.1,0000.0,0007.30,0004.04,0003.51
2022-05-05 14:04:00,,0826.1,4.99,0.00,24.6,23.8,00.0,33.6,26.5,23.0,0000.0,0007.57,0004.18,0003.62
2022-05-05 14:05:00,,0826.0,4.99,0.00,24.6,23.8,00.0,33.6,26.5,23.2,0001.1,0007.85,0004.33,0003.72
2022-05-05 14:06:00,,0826.0,5.00,0.00,24.6,23.7,00.0,33.6,26.5,22.8,0000.9,0008.19,0004.44,0003.80
2022-05-05 14:07:00,,0826.0,4.99,0.00,24.6,23.7,00.0,33.6,26.4,22.8,0000.5,0008.26,0004.52,0003.88
2022-05-05 14:08:00,,0826.0,5.02,0.00,24.6,23.8,00.0,33.6,26.4,23.1,0000.8,0008.28,0004.58,0003.94
2022-05-05 14:09:00,,0826.0,5.00,0.00,24.6,23.7,00.0,33.6,26.4,22.9,0000.8,0008.26,0004.60,0003.98
2022-05-05 14:10:00,,0826.0,5.00,0.00,24.5,23.7,00.0,33.5,26.4,22.8,0000.1,0008.21,0004.61,0003.97
2022-05-05 14:11:00,,0826.0,5.00,0.00,24.5,23.7,00.0,33.5,26.4,22.9,0000.0,0008.19,0004.59,0003.95
2022-05-05 14:12:00,,0826.0,5.01,0.00,24.5,23.7,00.0,33.5,26.4,22.9,0000.0,0008.14,0004.55,0003.92
2022-05-05 14:13:00,,0826.0,4.99,0.00,24.5,23.7,00.0,33.5,26.4,22.7,0000.0,0008.01,0004.49,0003.86
2022-05-05 14:14:00,,0826.0,5.00,0.00,24.5,23.7,00.0,33.5,26.4,22.8,0000.0,0007.85,0004.37,0003.79
2022-05-05 14:15:00,,0826.0,4.99,0.00,24.5,23.7,00.0,33.5,26.4,22.9,0000.0,0007.60,0004.23,0003.72
2022-05-05 14:16:00,,0826.0,5.01,0.00,24.5,23.7,00.0,33.5,26.4,23.2,0000.0,0007.40,0004.10,0003.64
2022-05-05 14:17:00,,0825.9,4.98,0.00,24.5,23.7,00.0,33.5,26.3,23.2,0000.0,0007.07,0004.00,0003.58
2022-05-05 14:18:00,,0825.9,5.01,0.00,24.5,23.7,00.0,33.5,26.3,23.6,0000.0,0007.00,0003.96,0003.54
2022-05-05 14:19:00,,0825.9,4.99,0.00,24.5,23.7,00.0,33.5,26.3,23.0,0000.0,0007.07,0003.92,0003.47
2022-05-05 14:20:00,,0825.9,5.00,0.00,24.5,23.7,00.0,33.5,26.3,23.1,0000.0,0006.95,0003.87,0003.42
2022-05-05 14:21:00,,0825.9,5.01,0.00,24.5,23.7,00.0,33.5,26.4,22.9,0000.0,0006.87,0003.81,0003.37
2022-05-05 14:22:00,,0825.8,5.00,0.00,24.5,23.7,00.0,33.5,26.3,22.8,0000.0,0006.83,0003.75,0003.32
2022-05-05 14:23:00,,0825.9,5.00,0.00,24.5,23.6,00.0,33.5,26.3,23.0,0000.0,0006.70,0003.69,0003.25
2022-05-05 14:24:00,,0825.9,5.00,0.00,24.4,23.7,00.0,33.5,26.3,22.9,0000.0,0006.57,0003.63,0003.20
2022-05-05 14:25:00,,0825.9,5.01,0.00,24.4,23.7,00.0,33.5,26.3,23.0,0000.0,0006.49,0003.60,0003.16
2022-05-05 14:26:00,,0826.0,4.99,0.00,24.4,23.6,00.0,33.4,26.3,22.8,0000.0,0006.57,0003.60,0003.12
2022-05-05 14:27:00,,0826.0,5.01,0.00,24.4,23.6,00.0,33.4,26.3,22.5,0000.0,0006.46,0003.56,0003.06
2022-05-05 14:28:00,,0826.0,5.00,0.00,24.4,23.6,00.0,33.4,26.3,22.2,0000.0,0006.08,0003.49,0002.95
2022-05-05 14:29:00,,0826.0,4.99,0.00,24.4,23.6,00.0,33.4,26.3,22.3,0000.0,0005.90,0003.41,0002.82
2022-05-05 14:30:00,,0826.0,5.01,0.00,24.4,23.6,00.0,33.4,26.2,21.8,0000.0,0005.69,0003.33,0002.70
2022-05-05 14:31:00,,0826.0,4.99,0.00,24.4,23.5,00.0,33.4,26.1,22.4,0000.0,0005.56,0003.29,0002.62
2022-05-05 14:32:00,,0826.0,5.01,0.00,24.3,23.5,00.0,33.4,26.2,22.6,0000.0,0005.38,0003.23,0002.54
2022-05-05 14:33:00,,0826.0,4.99,0.00,24.3,23.5,00.0,33.4,26.1,22.8,0000.0,0005.05,0003.17,0002.47
2022-05-05 14:34:00,,0826.0,5.01,0.00,24.3,23.5,00.0,33.4,26.2,22.9,0000.0,0005.00,0003.14,0002.41
2022-05-05 14:35:00,,0826.0,5.00,0.00,24.3,23.5,00.0,33.3,26.1,22.8,0000.0,0004.99,0003.09,0002.34
2022-05-05 14:36:00,,0826.0,5.00,0.00,24.3,23.5,00.0,33.3,26.1,22.0,0000.0,0004.75,0002.94,0002.23
2022-05-05 14:37:00,,0826.1,4.99,0.00,24.3,23.5,00.0,33.3,26.1,21.4,0000.0,0004.34,0002.75,0002.13
2022-05-05 14:38:00,,0826.0,5.01,0.00,24.3,23.5,00.0,33.3,26.1,21.6,0000.0,0004.06,0002.67,0002.07
2022-05-05 14:39:00,,0826.0,4.99,0.00,24.2,23.5,00.0,33.3,26.1,22.6,0000.0,0003.90,0002.65,0002.06
2022-05-05 14:40:00,,0826.1,4.99,0.00,24.2,23.5,00.0,33.3,26.1,22.1,0000.0,0003.82,0002.64,0002.07
2022-05-05 14:41:00,,0826.0,5.01,0.00,24.2,23.5,00.0,33.3,26.1,22.2,0000.0,0003.71,0002.60,0002.07
2022-05-05 14:42:00,,0826.0,4.99,0.00,24.2,23.5,00.0,33.3,26.0,21.9,0000.0,0003.68,0002.60,0002.11
2022-05-05 14:43:00,,0826.0,5.01,0.00,24.2,23.5,00.0,33.3,26.0,21.7,0000.0,0003.62,0002.62,0002.11
2022-05-05 14:44:00,,0826.0,4.99,0.00,24.2,23.5,00.0,33.3,26.1,21.6,0000.0,0003.71,0002.65,0002.10
2022-05-05 14:45:00,,0826.0,5.01,0.00,24.2,23.5,00.0,33.2,26.1,23.1,0000.0,0003.71,0002.68,0002.14
2022-05-05 14:46:00,,0826.0,4.99,0.00,24.2,23.5,00.0,33.2,26.0,23.0,0000.0,0003.93,0002.79,0002.21
2022-05-05 14:47:00,,0826.0,5.00,0.00,24.2,23.5,00.0,33.2,26.0,23.1,0000.0,0004.56,0002.93,0002.29
2022-05-05 14:48:00,,0826.1,5.00,0.00,24.2,23.5,00.0,33.2,26.0,22.8,0000.0,0006.21,0003.06,0002.37
2022-05-05 14:49:00,,0826.0,4.99,0.00,24.2,23.5,00.0,33.2,26.0,23.5,0000.0,0006.33,0003.12,0002.42
2022-05-05 14:50:00,,0826.0,5.01,0.00,24.2,23.5,00.0,33.2,26.0,22.9,0000.0,0006.39,0003.13,0002.46
2022-05-05 14:51:00,,0826.0,5.00,0.00,24.2,23.5,00.0,33.2,26.0,23.1,0000.0,0006.48,0003.15,0002.48
2022-05-05 14:52:00,,0826.0,5.00,0.00,24.2,23.5,00.0,33.2,26.0,23.3,0000.0,0006.63,0003.19,0002.52
2022-05-05 14:53:00,,0826.0,5.00,0.00,24.2,23.5,00.0,33.2,26.0,22.3,0000.0,0006.72,0003.19,0002.50
2022-05-05 14:54:00,,0826.0,4.99,0.00,24.2,23.5,00.0,33.2,26.0,23.0,0000.0,0006.72,0003.18,0002.50
2022-05-05 14:55:00,,0825.9,4.99,0.00,24.2,23.5,00.0,33.2,26.0,22.7,0000.0,0006.72,0003.17,0002.54
2022-05-05 14:56:00,,0825.9,5.01,0.00,24.2,23.5,00.0,33.2,26.0,22.8,0000.0,0007.07,0003.17,0002.52
2022-05-05 14:57:00,,0825.9,5.00,0.00,24.1,23.4,00.0,33.2,26.0,22.7,0000.0,0006.87,0003.10,0002.45
2022-05-05 14:58:00,,0826.0,5.01,0.00,24.1,23.4,00.0,33.2,26.0,23.2,0000.0,0006.75,0003.09,0002.45
2022-05-05 14:59:00,,0825.9,4.99,0.00,24.1,23.4,00.0,33.1,26.0,23.7,0000.0,0005.08,0003.09,0002.44
